Simultaneous Nadir Overpasses (SNOs) Predictions

Prediction of SNOs between LANDSAT-8 and METOP-A Satellite Orbit:

Table of predicted SNOs for the next 14.0 days since TLE Epoch: 5/1/2021
Index Date (LANDSAT-8) Time (LANDSAT-8) Lat,Lon (LANDSAT-8) SZA (LANDSAT-8 ) Date (METOP-A) Time (METOP-A) Lat,Lon (METOP-A) SZA (METOP-A ) Distance(km) Time Diff (sec)
1 05/02/2021 23:16:19 -81.41, 55.15 111.68 05/02/2021 23:16:00 -81.41, 54.96 111.70 3.14 19
2 05/03/2021 00:05:46 81.39,-137.50 68.28 05/03/2021 00:06:40 81.40,-137.39 68.32 2.05 54
3 05/05/2021 18:50:33 -81.40, 121.31 112.51 05/05/2021 18:50:22 -81.41, 121.47 112.49 2.84 11
4 05/05/2021 19:39:59 81.40, -70.97 67.49 05/05/2021 19:41:02 81.40, -70.92 67.53 0.99 63
5 05/08/2021 13:35:22 81.32, 18.69 66.53 05/08/2021 13:34:12 81.50, 16.70 66.41 38.44 70
6 05/08/2021 14:24:45 -81.40,-172.17 113.27 05/08/2021 14:24:43 -81.40,-172.04 113.25 2.25 2
7 05/08/2021 15:14:11 81.40, -4.49 66.73 05/08/2021 15:15:23 81.39, -4.46 66.76 0.89 72
8 05/11/2021 09:09:31 81.40, 86.67 66.02 05/11/2021 09:08:25 81.41, 86.70 66.00 1.10 66
9 05/11/2021 09:58:58 -81.40,-105.71 113.99 05/11/2021 09:59:05 -81.40,-105.57 113.98 2.29 7
10 05/14/2021 04:43:44 81.40, 153.07 65.32 05/14/2021 04:42:47 81.41, 153.12 65.31 1.20 57



Historial Predications of SNOs between LANDSAT-8 and METOP-A
